SL-14 R/B, 15100

Orbit data source: Space-Track

SL-14 R/B, 15100 is space debris in LEO originally from a launch on Thu, 05 Jul 1984 UTC launched from the Plesetsk Missile And Space Complex (PKMTR). Debris objects in space refer to the collection of defunct objects orbiting the Earth. Examples of debris include non-operational satellites, rocket bodies, and fragments generated from explosions, collisions, or faulty payload assembly.

Loading next visibility...
Identifier
15100, 1984-072B
Orbit
LEO
Last TLE update
11 hours ago
Origin
Manufacturer
Yuzhnoe
Mission
Spacecraft
Bus & Motor
S5M, Unknown motor
Mass
1,600 kg wet, 1,600 kg dry
Launch date (UTC)
1984-07-05 (41 years ago)
Launch vehicle
Unknown
Launch site
Plesetsk Missile And Space Complex (PKMTR)
Object type
Payload
Rocket body
Debris
Shape & HBR
Cyl, 2.7 m
Radar Cross Section
7.351 m², Large (>1 m²)

Expand to show TLE details & history

TLE from 11 hours ago
0 SL-14 R/B
1 15100U 84072B   25128.77949338  .00000044  00000-0  25886-4 0  9997
2 15100  82.5329   7.1646 0012089 168.4670 191.6769 13.84536823 63511
Epoch: 2025-05-08T18:42Z
Definitive object data (Epoch: 2025-05-08T18:42:28.228Z)
Latitude
-0.00007°
Longitude
-140.29812°
Altitude
959.416 km
Speed
7.368 km/s
True Right ascension
00h 28m 39s
True Declination
0° 00' 00"
Sunlit
Object was in daylight at TLE epoch
Visualization TLE readout
Latitude
34.8435°
Longitude
-135.44116°
Altitude
958.392 km
Speed
7.373 km/s
Apparent Right ascension
01h 04m 55s
Apparent Declination
0° 31' 41"
Sunlit
Object is in daylight
Visualization observer readout
Local Sidereal Time
13:25:38
Azimuth
7.955° NNE
Elevation
-49.28°
Doppler factor
1
Orbital elements
Apogee altitude
953.844 km
Perigee altitude
936.138 km
Semi-major axis
7,323.128 km
Eccentricity
0.0012089
Inclination
82.5329°
RAAN
7.1646°
Arg. of periapsis
168.467°
True anomaly
191.6489°
Mean anomaly
191.6769°
Eccentric anomaly
191.6629°
Mean motion
3.46336 °/min
BSTAR
0.000025886
Orbital period
103.95 mins
Loading maneuver chart data...
Loading SW <> Apogee altitude chart data...
Loading historical data...
Loading historical data...
Loading historical data...
Loading historical data...
Loading historical data...
Loading historical data...
Loading historical data...

SL-14 R/B Visibility forecast

Observer location: undefined°, undefined°

Span
Click to sort rows by Start time (UTC) header in descending order
Start Az.
Max El. time (UTC)
Max El. Az.
Max El.
End time (UTC)
End Az.
9 mins2025-05-09 15:37:59.809Z143.758° SSE2025-05-09 15:42:59.809Z83.502° E26.642°2025-05-09 15:46:59.809Z34.432° NE
10 mins2025-05-09 17:22:59.809Z223.297° SW2025-05-09 17:26:59.809Z274.616° WNW31.127°2025-05-09 17:32:59.809Z351.294° N
7 mins2025-05-10 02:31:59.809Z31.745° NE2025-05-10 02:34:59.809Z69.735° E22.014°2025-05-10 02:38:59.809Z117.619° SE
9 mins2025-05-10 04:15:59.809Z334.689° NNW2025-05-10 04:19:59.809Z274.211° WNW36.428°2025-05-10 04:24:59.809Z199.849° SSW
|